Flag for India Weather past 2 weeks in Jaipur, Rajasthan, India

Now
70 °F

Haze.


Feels Like: 70 °F
Forecast: 60 / 82 °F
Wind: 2 mph from North

Location: Jaipur / Sanganer

Current Time: Mar 6, 2015 at 10:34:01 AM

Latest Report: Mar 6, 2015 at 9:00 AM


Visibility: 2 mi

Pressure: 30.09 "Hg

Humidity: 40%

Dew point: 45 °F

Location of JaipurLocation

Historic Weather in Jaipur — Graph

°F

Jaipur temperature yesterday

Maximum temperature yesterday: 79 °F (at 3:00 PM)
Minimum temperature yesterday: 57 °F (at 7:00 AM)
Average temperature yesterday: 69 °F

Past Weeks' High & Low Weather Summary

 TemperatureHumidityPressure
High95 °F (Feb 23, 7:30 PM)100% (Mar 1, 9:00 AM)30.09 "Hg (Mar 1, 9:00 AM)
Low57 °F (Mar 3, 7:00 AM)11% (Feb 26, 5:00 PM)29.77 "Hg (Feb 25, 4:00 PM)
Average72 °F45%29.94 "Hg
* Reported Feb 19 9:30 AM — Mar 6 9:00 AM, Jaipur, Weather by CustomWeather, © 2015

Note: Actual official high and low records may vary slightly from our data, if they occured in-between our weather recording intervals... More about our weather records

Advertising

Jaipur weather history for previous 24 hours

 ConditionsComfort  
Time TempWeatherWind HumidityBarometerVisibility
9:00 AM
Fri, Mar 6
70 °FHaze.2 mph40%30.09 "Hg2 mi
8:00 AM61 °FScattered clouds.3 mph72%30.09 "Hg2 mi
7:00 AM59 °FPassing clouds.3 mph72%30.07 "Hg2 mi
6:30 AM61 °FPassing clouds.2 mph63%30.04 "Hg2 mi
6:00 AM61 °FPassing clouds.No wind63%30.04 "Hg2 mi
5:00 AM64 °FPassing clouds.2 mph49%30.01 "Hg2 mi
3:00 AM64 °FPassing clouds.3 mph52%30.01 "Hg2 mi
2:00 AM66 °FPassing clouds.5 mph46%30.01 "Hg2 mi
1:00 AM64 °FPassing clouds.3 mph52%30.04 "Hg2 mi
12:00 AM66 °FPassing clouds.5 mph46%30.04 "Hg2 mi
10:00 PM
Thu, Mar 5
68 °FPassing clouds.6 mph43%30.04 "Hg2 mi
9:00 PM68 °FPassing clouds.5 mph46%30.04 "Hg2 mi
8:00 PM72 °FPassing clouds.6 mph41%30.01 "Hg2 mi
7:30 PM73 °FPassing clouds.6 mph38%30.01 "Hg3 mi
7:00 PM73 °FPassing clouds.5 mph36%29.98 "Hg2 mi
6:00 PM77 °FScattered clouds.3 mph24%29.98 "Hg3 mi
5:30 PM77 °FScattered clouds.3 mph26%29.98 "Hg3 mi
4:00 PM79 °FPassing clouds.5 mph26%29.98 "Hg4 mi
3:30 PM79 °FPassing clouds.3 mph23%29.98 "Hg4 mi
3:00 PM79 °FPassing clouds.8 mph26%29.98 "Hg4 mi
2:30 PM77 °FPassing clouds.8 mph30%30.01 "Hg4 mi
2:00 PM77 °FClear.8 mph32%30.01 "Hg4 mi
12:00 PM73 °FHaze.8 mph41%30.07 "Hg3 mi
11:30 AM73 °FHaze.8 mph41%30.07 "Hg3 mi
10:00 AM68 °FHaze.8 mph53%30.07 "Hg2 mi
Weather by CustomWeather, © 2015

See weather overviewHow to use our weather pages